This is the latest recevied weather packets stored in our database for station/object N2OCK. If no packets are shown the sender has not sent any weather packets the latest 10 day(s).
| Time | Temp. | Humidity | Pressure | Rain* | Wind** | Luminosity | Snow |
|---|---|---|---|---|---|---|---|
| 1777724742 | 10.56° C | 93% | 1012.3 hPa | 0 mm | - | 61 W/m² | - |
| 1777724440 | 10.56° C | 93% | 1012.4 hPa | 0 mm | - | 73 W/m² | - |
| 1777724137 | 10.56° C | 94% | 1012.3 hPa | 0 mm | - | 104 W/m² | - |
| 1777723834 | 10.56° C | 94% | 1012.7 hPa | 0 mm | - | 119 W/m² | - |
| 1777723530 | 10.56° C | 94% | 1012.6 hPa | 0 mm | - | 112 W/m² | - |
| 1777723228 | 10° C | 94% | 1012.6 hPa | 0 mm | - | 95 W/m² | - |
| 1777722926 | 10° C | 94% | 1012.3 hPa | 0 mm | - | 95 W/m² | - |
| 1777722621 | 10.56° C | 94% | 1012.1 hPa | 0 mm | - | 102 W/m² | - |
| 1777722318 | 10.56° C | 95% | 1012.1 hPa | 0 mm | - | 93 W/m² | - |
| 1777722015 | 10° C | 95% | 1012.1 hPa | 0 mm | - | 84 W/m² | - |
| 1777721713 | 10° C | 95% | 1012.1 hPa | 0 mm | - | 84 W/m² | - |
| 1777721411 | 10° C | 95% | 1011.9 hPa | 0 mm | - | 58 W/m² | - |
| 1777721108 | 10° C | 95% | 1012 hPa | 0 mm | - | 56 W/m² | - |
| 1777720806 | 10° C | 95% | 1011.6 hPa | 0 mm | - | 61 W/m² | - |
| 1777720503 | 10° C | 94% | 1011.8 hPa | 0 mm | - | 46 W/m² | - |
| 1777720200 | 10° C | 93% | 1012.2 hPa | 1.27 mm | - | 24 W/m² | - |
| 1777719898 | 10° C | 92% | 1011.8 hPa | 1.27 mm | - | 49 W/m² | - |
| 1777719595 | 10° C | 91% | 1012.2 hPa | 0 mm | - | 28 W/m² | - |
| 1777719293 | 10° C | 91% | 1012.6 hPa | 0 mm | - | 9 W/m² | - |
| 1777718990 | 10° C | 90% | 1012.5 hPa | 0 mm | - | 7 W/m² | - |
| 1777718687 | 10° C | 90% | 1012.2 hPa | 0 mm | - | 11 W/m² | - |
| 1777718384 | 10° C | 90% | 1012.1 hPa | 0 mm | - | 35 W/m² | - |
| 1777718082 | 10° C | 90% | 1012.1 hPa | 0 mm | - | 31 W/m² | - |
| 1777717778 | 10° C | 90% | 1012 hPa | 0 mm | - | 17 W/m² | - |
| 1777717476 | 10° C | 90% | 1012.1 hPa | 0 mm | - | 12 W/m² | - |
* Rain latest hour (hover to see other rain measurements)
** Current wind speed in m/s (hover to see current wind gust speed)